CAL92 ZJHK-VHHX

Flight info

Callsign CAL92
Flight time 0h 57m
Altitude 33100
Route SAMAS9XD SAMAS A202 SIKOU/N0500F331
Aircraft B748/H-SDE3FGHIM1M2RWXY/LB1

Departure

Time 2026-04-21 13:22
Airport Haikou Meilan International Airport (ZJHK)

Arrival

Time 2026-04-21 14:19
Airport Hong Kong International Airport Kai Tak (VHHX)
Time Latitude Longitude Altitude Speed Heading
2026-04-21 12:51 19.94872 110.45922 79 ft 0 kts 165°
2026-04-21 13:11 19.94875 110.45921 79 ft 3 kts 165°
2026-04-21 13:11 19.94901 110.45912 89 ft 4 kts 160°
2026-04-21 13:12 19.94926 110.45902 84 ft 4 kts 156°
2026-04-21 13:12 19.94950 110.45889 84 ft 4 kts 148°
2026-04-21 13:12 19.94972 110.45872 84 ft 4 kts 136°
2026-04-21 13:12 19.94981 110.45862 85 ft 0 kts 130°
2026-04-21 13:17 19.94978 110.45867 84 ft 4 kts 129°
2026-04-21 13:17 19.94963 110.45890 83 ft 0 kts 123°
2026-04-21 13:18 19.94961 110.45900 84 ft 7 kts 99°
2026-04-21 13:18 19.95037 110.45948 83 ft 19 kts 15°
2026-04-21 13:18 19.95170 110.45950 85 ft 18 kts 340°
2026-04-21 13:18 19.95206 110.45857 80 ft 14 kts 271°
2026-04-21 13:19 19.95204 110.45742 80 ft 17 kts 267°
2026-04-21 13:19 19.95200 110.45608 82 ft 19 kts 270°
2026-04-21 13:19 19.95203 110.45458 80 ft 21 kts 270°
2026-04-21 13:19 19.95202 110.45294 80 ft 23 kts 269°
2026-04-21 13:20 19.95203 110.45112 74 ft 26 kts 272°
2026-04-21 13:20 19.95200 110.44916 76 ft 27 kts 269°
2026-04-21 13:20 19.95221 110.44830 67 ft 0 kts 319°
2026-04-21 13:20 19.95224 110.44830 73 ft 0 kts 332°
2026-04-21 13:21 19.95272 110.44823 68 ft 20 kts 359°
2026-04-21 13:21 19.95370 110.44921 67 ft 19 kts 81°
2026-04-21 13:21 19.95372 110.44947 71 ft 14 kts 86°
2026-04-21 13:21 19.95374 110.45350 80 ft 93 kts 89°
2026-04-21 13:22 19.95380 110.46283 77 ft 158 kts 90°
2026-04-21 13:22 19.95354 110.47513 715 ft 161 kts 98°
2026-04-21 13:22 19.95311 110.48711 1448 ft 167 kts 103°
2026-04-21 13:22 19.95448 110.50052 1645 ft 201 kts 83°
2026-04-21 13:23 19.96205 110.51419 1848 ft 231 kts 52°
2026-04-21 13:23 19.97616 110.52395 2187 ft 254 kts 21°
2026-04-21 13:23 19.99349 110.52924 2674 ft 263 kts 14°
2026-04-21 13:23 20.01093 110.53489 3410 ft 260 kts 21°
2026-04-21 13:24 20.02717 110.54300 4173 ft 258 kts 30°
2026-04-21 13:24 20.04246 110.55305 4838 ft 259 kts 32°
2026-04-21 13:24 20.05773 110.56330 5481 ft 260 kts 32°
2026-04-21 13:24 20.07312 110.57342 6143 ft 259 kts 33°
2026-04-21 13:25 20.08847 110.58390 6645 ft 267 kts 33°
2026-04-21 13:25 20.10490 110.59363 7059 ft 275 kts 18°
2026-04-21 13:25 20.12392 110.59577 7467 ft 281 kts 351°
2026-04-21 13:25 20.14291 110.58988 7816 ft 289 kts 336°
2026-04-21 13:26 20.16211 110.58265 8288 ft 296 kts 339°
2026-04-21 13:26 20.18192 110.57566 8766 ft 303 kts 340°
2026-04-21 13:26 20.20243 110.56943 9265 ft 309 kts 342°
2026-04-21 13:26 20.22329 110.56388 9929 ft 308 kts 344°
2026-04-21 13:27 20.24460 110.55923 10295 ft 319 kts 346°
2026-04-21 13:27 20.26676 110.55436 10541 ft 331 kts 345°
2026-04-21 13:27 20.28965 110.54903 10782 ft 343 kts 344°
2026-04-21 13:27 20.31324 110.54331 11095 ft 350 kts 344°
2026-04-21 13:28 20.33707 110.53742 11530 ft 353 kts 344°
2026-04-21 13:28 20.36113 110.53142 11996 ft 356 kts 343°
2026-04-21 13:28 20.38527 110.52535 12458 ft 358 kts 344°
2026-04-21 13:28 20.40954 110.51922 12939 ft 359 kts 343°
2026-04-21 13:29 20.43383 110.51308 13440 ft 360 kts 343°
2026-04-21 13:29 20.45826 110.50689 13878 ft 362 kts 343°
2026-04-21 13:29 20.48280 110.50061 14257 ft 363 kts 343°
2026-04-21 13:29 20.50743 110.49433 14611 ft 369 kts 352°
2026-04-21 13:30 20.53310 110.49735 15021 ft 377 kts 15°
2026-04-21 13:30 20.55629 110.51067 15386 ft 386 kts 37°
2026-04-21 13:30 20.57377 110.53266 15716 ft 395 kts 59°
2026-04-21 13:30 20.58276 110.56032 16113 ft 399 kts 81°
2026-04-21 13:31 20.58214 110.58992 16498 ft 401 kts 100°
2026-04-21 13:31 20.57649 110.61914 16840 ft 405 kts 101°
2026-04-21 13:31 20.57269 110.64891 17233 ft 405 kts 93°
2026-04-21 13:31 20.57316 110.67902 17599 ft 407 kts 83°
2026-04-21 13:32 20.57776 110.70880 17948 ft 408 kts 75°
2026-04-21 13:32 20.58532 110.73797 18301 ft 408 kts 70°
2026-04-21 13:32 20.59454 110.76667 18585 ft 411 kts 68°
2026-04-21 13:32 20.60462 110.79540 18891 ft 412 kts 67°
2026-04-21 13:33 20.61487 110.82405 19201 ft 414 kts 67°
2026-04-21 13:33 20.62510 110.85290 19472 ft 417 kts 68°
2026-04-21 13:33 20.63519 110.88191 19828 ft 418 kts 68°
2026-04-21 13:33 20.64519 110.91116 20102 ft 421 kts 69°
2026-04-21 13:34 20.65512 110.94062 20381 ft 423 kts 69°
2026-04-21 13:34 20.66508 110.97009 20542 ft 422 kts 69°
2026-04-21 13:34 20.67503 110.99949 20564 ft 420 kts 69°
2026-04-21 13:34 20.68496 111.02883 20571 ft 420 kts 69°
2026-04-21 13:35 20.69486 111.05811 20568 ft 420 kts 68°
2026-04-21 13:35 20.70477 111.08744 20570 ft 420 kts 69°
2026-04-21 13:35 20.71467 111.11675 20570 ft 419 kts 69°
2026-04-21 13:35 20.72455 111.14604 20577 ft 420 kts 69°
2026-04-21 13:36 20.73442 111.17532 20576 ft 419 kts 69°
2026-04-21 13:36 20.74427 111.20460 20577 ft 418 kts 69°
2026-04-21 13:36 20.75410 111.23381 20575 ft 418 kts 69°
2026-04-21 13:36 20.76393 111.26304 20575 ft 418 kts 69°
2026-04-21 13:37 20.77376 111.29231 20575 ft 418 kts 69°
2026-04-21 13:37 20.78358 111.32153 20575 ft 418 kts 69°
2026-04-21 13:37 20.79339 111.35077 20575 ft 418 kts 69°
2026-04-21 13:37 20.80320 111.38000 20581 ft 418 kts 69°
2026-04-21 13:38 20.81299 111.40921 20583 ft 418 kts 69°
2026-04-21 13:38 20.82278 111.43845 20584 ft 418 kts 69°
2026-04-21 13:38 20.83256 111.46765 20584 ft 418 kts 69°
2026-04-21 13:38 20.84235 111.49691 20584 ft 418 kts 69°
2026-04-21 13:39 20.85213 111.52617 20587 ft 418 kts 69°
2026-04-21 13:39 20.86191 111.55543 20586 ft 418 kts 69°
2026-04-21 13:39 20.87168 111.58467 20588 ft 418 kts 69°
2026-04-21 13:39 20.88146 111.61396 20587 ft 418 kts 69°
2026-04-21 13:40 20.89123 111.64315 20589 ft 418 kts 69°
2026-04-21 13:40 20.90099 111.67241 20589 ft 418 kts 69°
2026-04-21 13:40 20.91079 111.70170 20589 ft 418 kts 69°
2026-04-21 13:40 20.92057 111.73097 20589 ft 418 kts 69°
2026-04-21 13:41 20.93035 111.76026 20589 ft 418 kts 69°
2026-04-21 13:41 20.94016 111.78952 20592 ft 418 kts 69°
2026-04-21 13:41 20.94995 111.81877 20588 ft 418 kts 69°
2026-04-21 13:41 20.95974 111.84799 20589 ft 417 kts 69°
2026-04-21 13:42 20.96954 111.87720 20592 ft 417 kts 69°
2026-04-21 13:42 20.97934 111.90642 20592 ft 417 kts 69°
2026-04-21 13:42 20.98914 111.93559 20595 ft 417 kts 69°
2026-04-21 13:42 20.99899 111.96485 20592 ft 418 kts 69°
2026-04-21 13:43 21.00884 111.99407 20594 ft 418 kts 69°
2026-04-21 13:43 21.01869 112.02333 20594 ft 418 kts 69°
2026-04-21 13:43 21.02855 112.05258 20595 ft 418 kts 69°
2026-04-21 13:43 21.03843 112.08189 20597 ft 418 kts 69°
2026-04-21 13:44 21.04830 112.11114 20597 ft 418 kts 69°
2026-04-21 13:44 21.05816 112.14037 20596 ft 418 kts 69°
2026-04-21 13:44 21.06799 112.16961 20597 ft 418 kts 69°
2026-04-21 13:44 21.07784 112.19893 20597 ft 418 kts 69°
2026-04-21 13:45 21.08766 112.22815 20597 ft 418 kts 69°
2026-04-21 13:45 21.09749 112.25739 20597 ft 417 kts 69°
2026-04-21 13:45 21.10733 112.28666 20597 ft 417 kts 69°
2026-04-21 13:45 21.11718 112.31595 20597 ft 417 kts 69°
2026-04-21 13:46 21.12701 112.34521 20604 ft 418 kts 69°
2026-04-21 13:46 21.13686 112.37446 20603 ft 418 kts 69°
2026-04-21 13:46 21.14670 112.40373 20603 ft 418 kts 69°
2026-04-21 13:46 21.15654 112.43295 20597 ft 418 kts 69°
2026-04-21 13:47 21.16642 112.46224 20599 ft 417 kts 69°
2026-04-21 13:47 21.17625 112.49147 20600 ft 417 kts 69°
2026-04-21 13:47 21.18611 112.52076 20600 ft 417 kts 69°
2026-04-21 13:47 21.19593 112.54997 20600 ft 417 kts 69°
2026-04-21 13:48 21.20576 112.57918 20604 ft 418 kts 69°
2026-04-21 13:48 21.21563 112.60851 20606 ft 419 kts 69°
2026-04-21 13:48 21.22555 112.63797 20606 ft 419 kts 69°
2026-04-21 13:48 21.23545 112.66739 20606 ft 419 kts 69°
2026-04-21 13:49 21.24536 112.69679 20603 ft 419 kts 69°
2026-04-21 13:49 21.25527 112.72619 20605 ft 419 kts 69°
2026-04-21 13:49 21.26517 112.75553 20606 ft 420 kts 69°
2026-04-21 13:49 21.27510 112.78497 20606 ft 419 kts 69°
2026-04-21 13:50 21.28500 112.81434 20606 ft 419 kts 69°
2026-04-21 13:50 21.29490 112.84372 20606 ft 419 kts 69°
2026-04-21 13:50 21.30480 112.87308 20608 ft 419 kts 69°
2026-04-21 13:50 21.31470 112.90245 20608 ft 418 kts 69°
2026-04-21 13:51 21.32460 112.93182 20608 ft 418 kts 69°
2026-04-21 13:51 21.33449 112.96111 20608 ft 418 kts 69°
2026-04-21 13:51 21.34441 112.99050 20608 ft 419 kts 69°
2026-04-21 13:51 21.35431 113.01981 20608 ft 418 kts 69°
2026-04-21 13:52 21.36421 113.04911 20608 ft 418 kts 69°
2026-04-21 13:52 21.37407 113.07833 20318 ft 413 kts 69°
2026-04-21 13:52 21.38070 113.09797 19773 ft 416 kts 69°
2026-04-21 13:52 21.39058 113.12735 18955 ft 422 kts 69°
2026-04-21 13:53 21.40094 113.15689 18324 ft 421 kts 65°
2026-04-21 13:53 21.41375 113.18497 17682 ft 418 kts 59°
2026-04-21 13:53 21.42807 113.21191 17007 ft 416 kts 58°
2026-04-21 13:53 21.44264 113.23865 16377 ft 413 kts 58°
2026-04-21 13:54 21.45716 113.26511 15788 ft 409 kts 58°
2026-04-21 13:54 21.47162 113.29130 15225 ft 406 kts 58°
2026-04-21 13:54 21.48604 113.31724 14635 ft 403 kts 58°
2026-04-21 13:54 21.50037 113.34291 14075 ft 400 kts 58°
2026-04-21 13:55 21.51468 113.36835 13489 ft 397 kts 58°
2026-04-21 13:55 21.52900 113.39369 12872 ft 393 kts 58°
2026-04-21 13:55 21.54317 113.41861 12278 ft 389 kts 58°
2026-04-21 13:55 21.55725 113.44321 11803 ft 383 kts 58°
2026-04-21 13:56 21.57102 113.46714 11541 ft 370 kts 58°
2026-04-21 13:56 21.58433 113.49022 11307 ft 357 kts 58°
2026-04-21 13:56 21.59724 113.51250 11087 ft 345 kts 58°
2026-04-21 13:56 21.60974 113.53399 10871 ft 333 kts 58°
2026-04-21 13:57 21.62180 113.55472 10671 ft 323 kts 58°
2026-04-21 13:57 21.63357 113.57483 10481 ft 312 kts 58°
2026-04-21 13:57 21.64496 113.59427 10306 ft 302 kts 58°
2026-04-21 13:57 21.65597 113.61306 10149 ft 292 kts 58°
2026-04-21 13:58 21.66666 113.63134 9935 ft 285 kts 58°
2026-04-21 13:58 21.67711 113.64924 9633 ft 282 kts 58°
2026-04-21 13:58 21.68753 113.66702 9274 ft 279 kts 58°
2026-04-21 13:58 21.69787 113.68455 8949 ft 277 kts 58°
2026-04-21 13:59 21.70822 113.70195 8600 ft 275 kts 58°
2026-04-21 13:59 21.71854 113.71921 8242 ft 274 kts 58°
2026-04-21 13:59 21.72889 113.73635 7927 ft 272 kts 58°
2026-04-21 13:59 21.73917 113.75334 7594 ft 271 kts 58°
2026-04-21 14:00 21.74946 113.77025 7272 ft 269 kts 58°
2026-04-21 14:00 21.75969 113.78698 6944 ft 267 kts 58°
2026-04-21 14:00 21.76985 113.80368 6620 ft 265 kts 60°
2026-04-21 14:00 21.77734 113.82155 6384 ft 260 kts 76°
2026-04-21 14:01 21.78396 113.83974 6322 ft 263 kts 65°
2026-04-21 14:01 21.79269 113.85704 6316 ft 263 kts 62°
2026-04-21 14:01 21.80183 113.87410 6317 ft 263 kts 62°
2026-04-21 14:01 21.81098 113.89114 6331 ft 263 kts 62°
2026-04-21 14:02 21.82013 113.90815 6329 ft 263 kts 62°
2026-04-21 14:02 21.82933 113.92518 6332 ft 265 kts 62°
2026-04-21 14:02 21.83898 113.94320 6340 ft 287 kts 62°
2026-04-21 14:03 21.85924 113.98128 6332 ft 296 kts 62°
2026-04-21 14:03 21.86946 114.00051 6329 ft 295 kts 62°
2026-04-21 14:03 21.87965 114.01972 6337 ft 296 kts 62°
2026-04-21 14:03 21.89013 114.03874 6335 ft 296 kts 58°
2026-04-21 14:04 21.90269 114.05638 6321 ft 297 kts 47°
2026-04-21 14:04 21.91822 114.07077 6333 ft 291 kts 36°
2026-04-21 14:04 21.93486 114.08190 6326 ft 273 kts 30°
2026-04-21 14:04 21.95136 114.09081 6324 ft 260 kts 17°
2026-04-21 14:05 21.96877 114.09532 6336 ft 258 kts 12°
2026-04-21 14:05 21.98629 114.09959 6336 ft 258 kts 12°
2026-04-21 14:05 22.00381 114.10377 6332 ft 258 kts 10°
2026-04-21 14:05 22.02139 114.10749 6332 ft 258 kts 10°
2026-04-21 14:06 22.03900 114.11111 6331 ft 257 kts
2026-04-21 14:06 22.05659 114.11473 6329 ft 257 kts
2026-04-21 14:06 22.07417 114.11838 6328 ft 257 kts
2026-04-21 14:06 22.09175 114.12206 6327 ft 258 kts
2026-04-21 14:07 22.10935 114.12573 6327 ft 258 kts
2026-04-21 14:07 22.12698 114.12937 6322 ft 258 kts
2026-04-21 14:07 22.14471 114.12979 6322 ft 255 kts 345°
2026-04-21 14:07 22.16018 114.12159 6320 ft 246 kts 314°
2026-04-21 14:08 22.16950 114.10675 6323 ft 237 kts 284°
2026-04-21 14:08 22.17418 114.08974 6315 ft 238 kts 286°
2026-04-21 14:08 22.18367 114.07492 6328 ft 246 kts 314°
2026-04-21 14:08 22.19628 114.06250 6314 ft 245 kts 307°
2026-04-21 14:09 22.20366 114.04661 6321 ft 234 kts 277°
2026-04-21 14:09 22.20525 114.02932 6383 ft 231 kts 268°
2026-04-21 14:09 22.20560 114.01191 6167 ft 235 kts 266°
2026-04-21 14:09 22.20587 113.99437 5905 ft 230 kts 267°
2026-04-21 14:10 22.20616 113.97743 5760 ft 221 kts 266°
2026-04-21 14:10 22.20650 113.96117 5632 ft 212 kts 266°
2026-04-21 14:10 22.20693 113.94562 5505 ft 201 kts 266°
2026-04-21 14:10 22.20754 113.93099 5383 ft 191 kts 268°
2026-04-21 14:11 22.21196 113.91758 5193 ft 195 kts 302°
2026-04-21 14:11 22.22184 113.90768 4983 ft 194 kts 319°
2026-04-21 14:11 22.23350 113.90017 4698 ft 197 kts 330°
2026-04-21 14:11 22.24687 113.89692 4513 ft 199 kts 358°
2026-04-21 14:12 22.26059 113.89806 4488 ft 196 kts
2026-04-21 14:12 22.27418 113.90029 4479 ft 196 kts
2026-04-21 14:12 22.28775 113.90271 4491 ft 199 kts
2026-04-21 14:12 22.30141 113.90516 4495 ft 199 kts
2026-04-21 14:13 22.31492 113.90839 4472 ft 200 kts 25°
2026-04-21 14:13 22.32391 113.91877 4487 ft 186 kts 77°
2026-04-21 14:13 22.32352 113.93179 4513 ft 170 kts 115°
2026-04-21 14:13 22.32141 113.94449 4483 ft 180 kts 92°
2026-04-21 14:14 22.32414 113.95783 4491 ft 182 kts 85°
2026-04-21 14:14 22.32694 113.97121 4391 ft 182 kts 84°
2026-04-21 14:14 22.32955 113.98442 4159 ft 177 kts 86°
2026-04-21 14:14 22.33119 113.99709 3915 ft 164 kts 94°
2026-04-21 14:15 22.33089 114.00888 3668 ft 150 kts 105°
2026-04-21 14:15 22.32916 114.01956 3431 ft 141 kts 109°
2026-04-21 14:15 22.32732 114.03029 3157 ft 148 kts 107°
2026-04-21 14:15 22.32545 114.04146 2899 ft 155 kts 107°
2026-04-21 14:16 22.32370 114.05289 2819 ft 155 kts 105°
2026-04-21 14:16 22.32532 114.06456 2683 ft 158 kts 86°
2026-04-21 14:16 22.32608 114.07667 2382 ft 165 kts 96°
2026-04-21 14:16 22.32491 114.08902 2154 ft 166 kts 100°
2026-04-21 14:17 22.32416 114.10139 2028 ft 162 kts 96°
2026-04-21 14:17 22.32410 114.11311 2013 ft 152 kts 96°
2026-04-21 14:17 22.32380 114.12452 1811 ft 156 kts 97°
2026-04-21 14:17 22.32308 114.13636 1604 ft 160 kts 98°
2026-04-21 14:18 22.32227 114.14848 1355 ft 167 kts 92°
2026-04-21 14:18 22.32490 114.16075 1116 ft 169 kts 63°
2026-04-21 14:18 22.33036 114.17216 761 ft 176 kts 76°
2026-04-21 14:18 22.33079 114.18490 423 ft 162 kts 101°
2026-04-21 14:19 22.32421 114.19365 140 ft 147 kts 139°
2026-04-21 14:19 22.31764 114.20122 41 ft 129 kts 139°
2026-04-21 14:19 22.31217 114.20722 37 ft 81 kts 134°
2026-04-21 14:19 22.30967 114.21006 39 ft 16 kts 118°
2026-04-21 14:20 22.30963 114.21043 38 ft 12 kts 83°
2026-04-21 14:20 22.31004 114.21080 38 ft 8 kts
2026-04-21 14:20 22.31055 114.21053 38 ft 13 kts 321°
2026-04-21 14:20 22.31190 114.20910 38 ft 32 kts 313°
2026-04-21 14:21 22.31346 114.20731 39 ft 33 kts 313°
2026-04-21 14:21 22.31481 114.20583 39 ft 0 kts 315°
2026-04-21 14:21 22.31489 114.20584 39 ft 2 kts
2026-04-21 14:22 22.31526 114.20613 42 ft 11 kts 39°
2026-04-21 14:22 22.31601 114.20689 37 ft 17 kts 44°
2026-04-21 14:22 22.31669 114.20745 39 ft 0 kts 33°
2026-04-21 14:22 22.31709 114.20778 39 ft 12 kts 40°
2026-04-21 14:23 22.31733 114.20802 39 ft 0 kts 43°